N0PSJ Weather Reports


time (UTC)temp
F
wind
direction
speed
knots
gust
knots
rain 1hr
in
rain 24hr
in
rain mn
in
humidity
%
barometer
mb
20260906213003 93 145 3.5 12.2 0.00 0.00 0.00 30 1000.5
20260906212503 92 136 5.2 11.3 0.00 0.00 0.00 29 1000.6
20260906212002 92 127 4.3 10.4 0.00 0.00 0.00 29 1000.7
20260906211503 92 170 3.5 15.6 0.00 0.00 0.00 30 1000.8
20260906211002 92 131 6.1 15.6 0.00 0.00 0.00 30 1000.8
20260906210503 92 168 2.6 10.4 0.00 0.00 0.00 31 1000.8
20260906210004 91 148 2.6 13.9 0.00 0.00 0.00 32 1000.8
20260906205503 92 140 9.6 13.9 0.00 0.00 0.00 31 1000.8
20260906205003 92 127 4.3 13.0 0.00 0.00 0.00 32 1000.8
20260906204502 92 126 6.1 10.4 0.00 0.00 0.00 32 1000.9
20260906204003 92 167 4.3 10.4 0.00 0.00 0.00 32 1000.9
20260906203524 92 139 5.2 12.2 0.00 0.00 0.00 32 1000.9
20260906203024 93 128 6.1 12.2 0.00 0.00 0.00 32 1000.9
20260906202502 92 134 4.3 13.9 0.00 0.00 0.00 32 1001.0
20260906202024 93 88 0.9 13.9 0.00 0.00 0.00 31 1001.2
20260906201503 94 107 2.6 9.6 0.00 0.00 0.00 30 1001.2
20260906201003 95 127 5.2 9.6 0.00 0.00 0.00 29 1001.3
20260906200503 94 168 2.6 8.7 0.00 0.00 0.00 30 1001.4
20260906200024 93 135 4.3 8.7 0.00 0.00 0.00 31 1001.4
20260906195503 94 141 2.6 8.7 0.00 0.00 0.00 31 1001.4
20260906195003 92 154 2.6 8.7 0.00 0.00 0.00 32 1001.5
20260906194503 92 107 3.5 10.4 0.00 0.00 0.00 32 1001.5
20260906194002 92 133 4.3 10.4 0.00 0.00 0.00 31 1001.5
20260906193546 92 121 4.3 12.2 0.00 0.00 0.00 31 1001.6
20260906193046 91 122 4.3 12.2 0.00 0.00 0.00 31 1001.8
20260906192525 92 121 5.2 10.4 0.00 0.00 0.00 32 1001.8
20260906192003 92 109 4.3 10.4 0.00 0.00 0.00 33 1002.0
20260906191503 91 95 2.6 8.7 0.00 0.00 0.00 34 1002.0
20260906191003 91 122 3.5 8.7 0.00 0.00 0.00 34 1002.0
20260906190503 90 67 2.6 8.7 0.00 0.00 0.00 34 1002.1
20260906190003 91 114 2.6 8.7 0.00 0.00 0.00 34 1002.3
20260906185503 91 121 3.5 8.7 0.00 0.00 0.00 33 1002.4
20260906185002 91 122 2.6 8.7 0.00 0.00 0.00 32 1002.5
20260906184503 91 128 1.7 7.0 0.00 0.00 0.00 34 1002.7
20260906184002 90 123 3.5 7.0 0.00 0.00 0.00 34 1002.8
20260906183503 90 138 0.9 7.0 0.00 0.00 0.00 34 1002.9
20260906183003 90 102 1.7 3.5 0.00 0.00 0.00 34 1003.1
20260906182503 90 103 0.9 6.1 0.00 0.00 0.00 34 1003.3
20260906182024 89 105 1.7 6.1 0.00 0.00 0.00 35 1003.4
20260906181502 89 98 0.9 6.1 0.00 0.00 0.00 35 1003.4
20260906181024 89 106 1.7 6.1 0.00 0.00 0.00 34 1003.5
20260906180502 89 110 0.9 7.8 0.00 0.00 0.00 35 1003.7
20260906180003 89 131 1.7 7.8 0.00 0.00 0.00 35 1003.8
20260906175502 89 116 0.9 6.1 0.00 0.00 0.00 35 1003.9
20260906175003 88 109 1.7 6.1 0.00 0.00 0.00 35 1004.1
20260906174503 88 109 0.9 5.2 0.00 0.00 0.00 36 1004.1
20260906174003 87 109 2.6 7.0 0.00 0.00 0.00 36 1004.3
20260906173503 87 104 2.6 7.0 0.00 0.00 0.00 36 1004.4
20260906173003 87 94 0.0 5.2 0.00 0.00 0.00 36 1004.4
20260906172502 86 109 0.0 5.2 0.00 0.00 0.00 36 1004.4
20260906172003 86 107 0.9 6.1 0.00 0.00 0.00 37 1004.4
20260906171502 86 88 2.6 6.1 0.00 0.00 0.00 36 1004.4
20260906171003 86 109 0.0 5.2 0.00 0.00 0.00 37 1004.5
20260906170545 86 111 1.7 5.2 0.00 0.00 0.00 37 1004.6
20260906170002 86 115 1.7 5.2 0.00 0.00 0.00 37 1004.5
20260906165524 86 107 1.7 3.5 0.00 0.00 0.00 38 1004.5
20260906165003 85 105 1.7 3.5 0.00 0.00 0.00 39 1004.6
20260906164545 84 106 0.0 6.1 0.00 0.00 0.00 40 1004.7
20260906164003 84 105 0.9 6.1 0.00 0.00 0.00 41 1004.7
20260906163503 83 110 2.6 5.2 0.00 0.00 0.00 41 1004.6
20260906163003 83 109 1.7 6.1 0.00 0.00 0.00 42 1004.8
20260906162503 82 115 1.7 6.1 0.00 0.00 0.00 43 1004.8
20260906162002 82 111 2.6 6.1 0.00 0.00 0.00 43 1004.8
20260906161503 82 132 0.0 3.5 0.00 0.00 0.00 45 1005.0
20260906161002 82 132 1.7 4.3 0.00 0.00 0.00 45 1004.9
20260906160503 82 132 1.7 4.3 0.00 0.00 0.00 44 1004.8
20260906160024 82 132 0.9 3.5 0.00 0.00 0.00 46 1004.9
20260906155503 81 132 0.9 4.3 0.00 0.00 0.00 45 1004.9
20260906155003 81 134 0.0 4.3 0.00 0.00 0.00 47 1005.0
20260906154503 80 134 0.0 2.6 0.00 0.00 0.00 47 1005.0
20260906154002 80 134 0.9 4.3 0.00 0.00 0.00 48 1004.9
20260906153503 79 135 0.0 4.3 0.00 0.00 0.00 49 1004.9
20260906153002 79 137 0.9 5.2 0.00 0.00 0.00 49 1004.9
20260906152503 78 133 1.7 5.2 0.00 0.00 0.00 49 1005.0
20260906152002 78 173 1.7 4.3 0.00 0.00 0.00 49 1005.1
20260906151503 77 141 1.7 4.3 0.00 0.00 0.00 49 1005.2
20260906151024 77 147 1.7 3.5 0.00 0.00 0.00 50 1005.2
20260906150502 77 108 1.7 3.5 0.00 0.00 0.00 50 1005.3
20260906150003 76 354 0.0 2.6 0.00 0.00 0.00 51 1005.3
20260906145524 75 354 1.7 2.6 0.00 0.00 0.00 52 1005.1
20260906145003 75 354 1.7 2.6 0.00 0.00 0.00 52 1005.2
20260906144503 74 354 1.7 2.6 0.00 0.00 0.00 53 1005.3
20260906144003 73 330 0.0 1.7 0.00 0.00 0.00 54 1005.2
20260906143502 73 331 0.0 2.6 0.00 0.00 0.00 55 1005.1
20260906143003 72 330 1.7 2.6 0.00 0.00 0.00 57 1005.0
20260906142502 71 330 0.0 0.0 0.00 0.00 0.00 58 1004.9
20260906142003 69 330 0.0 0.0 0.00 0.00 0.00 60 1005.0
20260906141502 69 330 0.0 0.0 0.00 0.00 0.00 62 1004.9
20260906141003 68 330 0.0 0.0 0.00 0.00 0.00 64 1004.9
20260906140502 67 330 0.0 0.0 0.00 0.00 0.00 64 1005.0
20260906140003 67 330 0.0 0.9 0.00 0.00 0.00 65 1004.9
20260906135502 66 330 0.0 0.9 0.00 0.00 0.00 67 1004.9
20260906135024 65 330 0.0 0.9 0.00 0.00 0.00 68 1004.8
20260906134502 65 330 0.0 0.0 0.00 0.00 0.00 68 1004.8
20260906134003 64 330 0.0 0.0 0.00 0.00 0.00 69 1004.8
20260906133545 64 330 0.0 0.0 0.00 0.00 0.00 70 1004.8
20260906133003 64 330 0.0 0.0 0.00 0.00 0.00 70 1004.7
20260906132003 63 330 0.0 1.7 0.00 0.00 0.00 69 1004.5
20260906131502 63 330 0.0 0.9 0.00 0.00 0.00 70 1004.4
20260906131003 63 330 0.0 1.7 0.00 0.00 0.00 71 1004.2
20260906130502 63 331 0.0 1.7 0.00 0.00 0.00 71 1004.2
20260906130003 63 331 0.0 0.0 0.00 0.00 0.00 71 1004.2
20260906125503 63 330 0.0 0.0 0.00 0.00 0.00 71 1004.1
20260906125024 63 330 0.0 0.9 0.00 0.00 0.00 71 1004.2
20260906124502 63 330 0.0 1.7 0.00 0.00 0.00 71 1004.1
20260906124003 63 330 0.9 1.7 0.00 0.00 0.00 70 1004.1
20260906123502 63 330 0.9 1.7 0.00 0.00 0.00 69 1004.1
20260906123024 64 330 0.9 2.6 0.00 0.00 0.00 68 1004.1
20260906122503 64 330 0.0 2.6 0.00 0.00 0.00 68 1004.0
20260906122002 64 329 0.9 2.6 0.00 0.00 0.00 69 1003.9
20260906121503 64 329 0.9 2.6 0.00 0.00 0.00 69 1003.9
20260906121003 64 329 0.9 2.6 0.00 0.00 0.00 69 1003.8
20260906120502 64 328 0.9 1.7 0.00 0.00 0.00 69 1003.8
20260906120003 64 328 0.9 3.5 0.00 0.00 0.00 71 1003.9
20260906115545 64 327 0.9 3.5 0.00 0.00 0.00 72 1003.8
20260906115003 63 326 1.7 3.5 0.00 0.00 0.00 72 1003.7
20260906114502 63 330 1.7 3.5 0.00 0.00 0.00 70 1003.6
20260906114003 64 332 1.7 3.5 0.00 0.00 0.00 69 1003.6
20260906113502 64 346 1.7 3.5 0.00 0.00 0.00 67 1003.7
20260906113003 65 14 1.7 2.6 0.00 0.00 0.00 66 1003.7
20260906112503 66 15 0.9 2.6 0.00 0.00 0.00 66 1003.7
20260906112023 66 15 0.9 2.6 0.00 0.00 0.00 65 1003.8
20260906111503 67 17 1.7 2.6 0.00 0.00 0.00 64 1003.6
20260906111023 68 17 0.9 1.7 0.00 0.00 0.00 64 1003.5
20260906110524 68 17 0.0 1.7 0.00 0.00 0.00 65 1003.5
20260906110003 68 17 0.0 1.7 0.00 0.00 0.00 65 1003.5
20260906105524 68 17 0.0 1.7 0.00 0.00 0.00 65 1003.5
20260906105003 68 17 0.9 2.6 0.00 0.00 0.00 64 1003.6
20260906104503 68 17 0.0 2.6 0.00 0.00 0.00 63 1003.7
20260906104003 68 17 0.0 0.9 0.00 0.00 0.00 63 1003.6
20260906103503 68 17 0.0 2.6 0.00 0.00 0.00 64 1003.7
20260906103002 69 17 0.0 2.6 0.00 0.00 0.00 64 1003.6
20260906102503 69 16 0.9 2.6 0.00 0.00 0.00 63 1003.5
20260906102002 69 16 0.9 3.5 0.00 0.00 0.00 64 1003.6
20260906101503 68 17 0.9 3.5 0.00 0.00 0.00 64 1003.6
20260906101002 68 17 0.0 2.6 0.00 0.00 0.00 64 1003.7
20260906100503 68 17 0.0 2.6 0.00 0.00 0.00 64 1003.7
20260906100002 68 17 0.9 2.6 0.00 0.00 0.00 63 1003.9
20260906095503 68 16 0.9 2.6 0.00 0.00 0.00 64 1003.9
20260906095002 68 16 0.9 3.5 0.00 0.00 0.00 63 1003.9
20260906094524 69 16 0.9 3.5 0.00 0.00 0.00 63 1003.8
20260906094003 69 17 1.7 2.6 0.00 0.00 0.00 62 1003.8
20260906093503 69 17 0.9 2.6 0.00 0.00 0.00 62 1003.9
20260906093003 69 22 0.9 1.7 0.00 0.00 0.00 61 1003.8
20260906092523 69 22 0.9 1.7 0.00 0.00 0.00 60 1003.7
20260906092003 70 22 0.0 1.7 0.00 0.00 0.00 60 1003.8
20260906091524 70 22 0.0 1.7 0.00 0.00 0.00 60 1003.7
20260906091003 70 23 0.0 1.7 0.00 0.00 0.00 60 1003.7
20260906090502 70 22 0.0 2.6 0.00 0.00 0.00 59 1003.5
20260906090003 71 22 0.9 3.5 0.00 0.00 0.00 59 1003.6
20260906085502 71 22 0.9 4.3 0.00 0.00 0.00 59 1003.5
20260906085003 71 19 0.9 5.2 0.00 0.00 0.00 59 1003.5
20260906084502 71 27 1.7 5.2 0.00 0.00 0.00 59 1003.5
20260906084003 70 37 0.9 3.5 0.00 0.00 0.00 60 1003.6
20260906083502 70 46 0.9 2.6 0.00 0.00 0.00 61 1003.6
20260906083003 69 64 0.9 2.6 0.00 0.00 0.00 60 1003.7
20260906082523 69 79 0.0 0.9 0.00 0.00 0.00 58 1003.7
20260906082003 69 79 0.0 0.9 0.00 0.00 0.00 57 1003.8
20260906081503 69 79 0.0 0.9 0.00 0.00 0.00 55 1003.6
20260906081003 70 79 0.0 0.0 0.00 0.00 0.00 54 1003.4
20260906080502 70 79 0.0 0.0 0.00 0.00 0.00 53 1003.3
20260906080024 70 79 0.0 0.9 0.00 0.00 0.00 53 1003.2
20260906075523 70 79 0.0 0.9 0.00 0.00 0.00 53 1003.1
20260906075024 71 79 0.0 0.0 0.00 0.00 0.00 53 1003.0
20260906074503 71 79 0.0 1.7 0.00 0.00 0.00 52 1002.9
20260906074003 71 79 0.0 1.7 0.00 0.00 0.00 51 1002.8
20260906073503 72 79 0.0 1.7 0.00 0.00 0.00 51 1002.8
20260906073002 72 79 0.9 2.6 0.00 0.00 0.00 52 1002.8
20260906072503 72 78 0.9 2.6 0.00 0.00 0.00 51 1002.7
20260906072002 73 45 0.0 3.5 0.00 0.00 0.00 50 1002.7
20260906071503 73 45 0.0 4.3 0.00 0.00 0.00 51 1002.6
20260906071003 73 44 1.7 4.3 0.00 0.00 0.00 51 1002.5
20260906070503 73 45 1.7 3.5 0.00 0.00 0.00 50 1002.5
20260906070003 73 46 1.7 4.3 0.00 0.00 0.00 50 1002.4
20260906065503 73 49 1.7 5.2 0.00 0.00 0.00 50 1002.4
20260906065003 73 51 1.7 5.2 0.00 0.00 0.00 50 1002.6
20260906064524 73 52 1.7 2.6 0.00 0.00 0.00 48 1002.6
20260906063502 74 55 0.0 5.2 0.00 0.00 0.00 47 1002.6
20260906063003 74 54 1.7 5.2 0.00 0.00 0.00 48 1002.7
20260906062502 74 56 2.6 5.2 0.00 0.00 0.00 47 1002.7
20260906062003 74 56 1.7 5.2 0.00 0.00 0.00 46 1002.7
20260906061502 74 56 1.7 2.6 0.00 0.00 0.00 46 1002.6
20260906061003 74 59 0.9 5.2 0.00 0.00 0.00 45 1002.7
20260906060502 75 59 1.7 5.2 0.00 0.00 0.00 45 1002.7
20260906060003 75 57 1.7 4.3 0.00 0.00 0.00 45 1002.7
20260906055502 75 57 2.6 4.3 0.00 0.00 0.00 45 1002.8
20260906055045 75 56 1.7 7.0 0.00 0.00 0.00 45 1002.9
20260906054545 75 66 3.5 7.0 0.00 0.00 0.00 44 1002.9
20260906054003 76 62 2.6 5.2 0.00 0.00 0.00 44 1003.0
20260906053502 76 61 3.5 5.2 0.00 0.00 0.00 44 1002.9
20260906053003 76 54 1.7 6.1 0.00 0.00 0.00 43 1003.0
20260906052524 76 58 2.6 6.1 0.00 0.00 0.00 44 1002.9
20260906052003 75 63 3.5 5.2 0.00 0.00 0.00 43 1003.1
20260906051502 75 62 2.6 4.3 0.00 0.00 0.00 43 1003.1
20260906051003 75 67 0.9 7.0 0.00 0.00 0.00 42 1003.1
20260906050502 75 62 2.6 7.0 0.00 0.00 0.00 42 1003.1
20260906050003 75 60 2.6 4.3 0.00 0.00 0.00 42 1003.0
20260906045502 75 55 2.6 5.2 0.00 0.00 0.00 41 1002.9
20260906045003 75 55 3.5 5.2 0.00 0.00 0.00 41 1002.9
20260906044503 75 55 1.7 3.5 0.00 0.00 0.00 41 1002.8
20260906044003 76 55 1.7 4.3 0.00 0.00 0.00 40 1002.7
20260906043503 77 56 3.5 4.3 0.00 0.00 0.00 40 1002.7
20260906043003 77 60 2.6 4.3 0.00 0.00 0.00 41 1002.6
20260906042524 77 61 2.6 3.5 0.00 0.00 0.00 41 1002.7
20260906042003 77 61 1.7 3.5 0.00 0.00 0.00 42 1002.7
20260906041503 77 61 2.6 3.5 0.00 0.00 0.00 42 1002.8
20260906041024 77 61 1.7 3.5 0.00 0.00 0.00 41 1002.9
20260906040503 77 62 1.7 4.3 0.00 0.00 0.00 40 1002.8
20260906040002 77 64 1.7 5.2 0.00 0.00 0.00 40 1002.8
20260906035503 77 61 1.7 5.2 0.00 0.00 0.00 37 1002.8
20260906035003 77 65 0.0 6.1 0.00 0.00 0.00 36 1003.0
20260906034503 77 64 1.7 6.1 0.00 0.00 0.00 37 1003.0
20260906034003 77 62 1.7 7.0 0.00 0.00 0.00 35 1003.0
20260906033503 78 64 3.5 7.8 0.00 0.00 0.00 34 1002.9
20260906033003 79 63 2.6 7.8 0.00 0.00 0.00 33 1002.8
20260906032503 79 263 0.0 0.0 0.00 0.00 0.00 33 1002.7
20260906032003 79 263 0.0 0.0 0.00 0.00 0.00 33 1002.7
20260906031502 79 263 0.0 0.0 0.00 0.00 0.00 33 1002.6
20260906031003 79 263 0.0 0.0 0.00 0.00 0.00 32 1002.6
20260906030502 80 263 0.0 0.0 0.00 0.00 0.00 32 1002.4
20260906030003 80 263 0.0 0.0 0.00 0.00 0.00 32 1002.3
20260906025502 80 263 0.0 0.0 0.00 0.00 0.00 32 1002.2
20260906025003 80 263 0.0 0.0 0.00 0.00 0.00 31 1002.1
20260906024503 80 263 0.0 0.0 0.00 0.00 0.00 32 1002.1
20260906024002 80 263 0.0 0.0 0.00 0.00 0.00 31 1002.0
20260906023503 81 263 0.0 0.0 0.00 0.00 0.00 30 1001.9
20260906023002 81 263 0.0 0.0 0.00 0.00 0.00 29 1001.7
20260906022524 82 263 0.0 5.2 0.00 0.00 0.00 28 1001.6
20260906022002 82 263 0.0 5.2 0.00 0.00 0.00 28 1001.6
20260906021503 83 262 2.6 3.5 0.00 0.00 0.00 27 1001.5
20260906021003 84 262 0.9 2.6 0.00 0.00 0.00 27 1001.3
20260906020502 85 261 0.0 0.0 0.00 0.00 0.00 26 1001.2
20260906020003 86 261 0.0 0.0 0.00 0.00 0.00 26 1001.2
20260906015502 87 262 0.0 0.0 0.00 0.00 0.00 26 1001.1
20260906015003 87 262 0.0 0.0 0.00 0.00 0.00 25 1001.0
20260906014524 88 261 0.0 0.0 0.00 0.00 0.00 25 1000.9
20260906014003 88 262 0.0 0.0 0.00 0.00 0.00 25 1001.0
20260906013502 88 262 0.0 0.0 0.00 0.00 0.00 25 1001.0
20260906013003 89 261 0.0 0.0 0.00 0.00 0.00 25 1000.8
20260906012523 89 261 0.0 2.6 0.00 0.00 0.00 24 1000.9
20260906012003 90 261 0.0 2.6 0.00 0.00 0.00 24 1000.9
20260906011503 90 229 1.7 2.6 0.00 0.00 0.00 24 1000.9
20260906011003 90 205 1.7 2.6 0.00 0.00 0.00 24 1001.0
20260906010502 91 203 0.9 3.5 0.00 0.00 0.00 23 1000.9
20260906010003 91 203 0.9 3.5 0.00 0.00 0.00 23 1000.9
20260906005503 92 200 0.9 3.5 0.00 0.00 0.00 22 1001.0
20260906005003 92 200 1.7 3.5 0.00 0.00 0.00 22 1001.0
20260906004503 92 200 1.7 4.3 0.00 0.00 0.00 22 1000.9
20260906004002 93 200 1.7 5.2 0.00 0.00 0.00 21 1000.9
20260906003503 93 201 2.6 7.8 0.00 0.00 0.00 21 1000.8
20260906003023 93 164 3.5 8.7 0.00 0.00 0.00 20 1000.8
20260906002503 93 151 4.3 8.7 0.00 0.00 0.00 21 1000.7
20260906002002 94 142 4.3 8.7 0.00 0.00 0.00 20 1000.6
20260906001503 93 148 3.5 5.2 0.00 0.00 0.00 19 1000.5
20260906001003 93 148 0.9 7.0 0.00 0.00 0.00 19 1000.4
20260906000503 93 148 2.6 23.5 0.00 0.00 0.00 19 1000.3
20260906000024 92 220 5.2 24.3 0.00 0.00 0.00 19 1000.4
20260905235502 91 232 13.9 24.3 0.00 0.00 0.00 20 1000.4
20260905235003 91 178 7.8 16.5 0.00 0.00 0.00 22 1000.6
20260905234502 91 209 10.4 16.5 0.00 0.00 0.00 22 1000.8
20260905234024 92 231 9.6 16.5 0.00 0.00 0.00 21 1000.9
20260905233502 92 193 2.6 5.2 0.00 0.00 0.00 21 1000.8
20260905233003 92 202 2.6 6.1 0.00 0.00 0.00 21 1000.7
20260905232524 93 192 2.6 9.6 0.00 0.00 0.00 21 1000.6
20260905232023 93 187 4.3 9.6 0.00 0.00 0.00 20 1000.6
20260905231503 93 165 3.5 8.7 0.00 0.00 0.00 21 1000.6
20260905231003 93 197 2.6 13.0 0.00 0.00 0.00 21 1000.6
20260905230503 93 175 8.7 13.0 0.00 0.00 0.00 20 1000.5
20260905230003 93 167 7.8 20.0 0.00 0.00 0.00 20 1000.4
20260905225502 94 158 12.2 20.0 0.00 0.00 0.00 20 1000.5
20260905225003 94 134 4.3 8.7 0.00 0.00 0.00 20 1000.5
20260905224502 94 127 4.3 7.8 0.00 0.00 0.00 19 1000.5
20260905224003 94 142 3.5 7.8 0.00 0.00 0.00 19 1000.4
20260905223503 95 177 4.3 7.8 0.00 0.00 0.00 19 1000.4
20260905223003 95 179 3.5 7.8 0.00 0.00 0.00 19 1000.3
20260905222503 95 177 2.6 7.8 0.00 0.00 0.00 19 1000.3
20260905222002 95 149 3.5 8.7 0.00 0.00 0.00 19 1000.3
20260905221503 95 165 3.5 10.4 0.00 0.00 0.00 19 1000.4
20260905221003 96 131 3.5 10.4 0.00 0.00 0.00 18 1000.4
20260905220503 96 164 4.3 10.4 0.00 0.00 0.00 18 1000.3
20260905220003 96 162 2.6 13.0 0.00 0.00 0.00 18 1000.5
20260905215503 97 133 6.1 13.0 0.00 0.00 0.00 18 1000.4
20260905215002 98 187 3.5 7.8 0.00 0.00 0.00 17 1000.4
20260905214503 98 247 0.9 7.8 0.00 0.00 0.00 17 1000.5
20260905214003 98 235 4.3 7.8 0.00 0.00 0.00 18 1000.5
20260905213503 97 168 0.9 7.8 0.00 0.00 0.00 18 1000.5